When you browse on this site, cookies collect data to enhance your experience and personalize the content and advertising you see.
Visit our Privacy Policy to learn more. By continuing to use the site, you agree to this use of cookies and data.
  • In Österreich
  • Länderverzeichnis
  • Für 7 Tage
  • Wassertemperatur
  • Satellitenkarten
  • Wetterkarte
  • News
  • Widgets
  • user-avatar
    Anmelden

    Stündliche Wetter Samsonovo

    Heute, 21 Juli, Sonntag

    Zeit Temperatur Niederschläge Wind Luftdruck Luftfeuchtigkeit
    00:00 +14°C° 0 mm 1 m/S 752 mmHg 97%
    01:00 +14°C° 0 mm 1 m/S 752 mmHg 97%
    02:00 +14°C° 0 mm 1 m/S 753 mmHg 98%
    03:00 +14°C° 0 mm 1 m/S 753 mmHg 98%
    04:00 +14°C° 0 mm 1 m/S 753 mmHg 98%
    05:00 +14°C° 0 mm 1 m/S 753 mmHg 98%
    06:00 +16°C° 0 mm 1 m/S 753 mmHg 93%
    07:00 +18°C° 0 mm 1 m/S 753 mmHg 88%
    08:00 +20°C° 0 mm 1 m/S 753 mmHg 83%
    09:00 +21°C° 0 mm 1 m/S 753 mmHg 75%
    10:00 +23°C° 0 mm 1 m/S 753 mmHg 67%
    11:00 +24°C° 0 mm 1 m/S 753 mmHg 59%
    12:00 +25°C° 0.1 mm 1 m/S 753 mmHg 57%
    13:00 +25°C° 0.1 mm 1 m/S 753 mmHg 56%
    14:00 +25°C° 0.1 mm 1 m/S 753 mmHg 54%
    15:00 +25°C° 0.4 mm 2 m/S 753 mmHg 62%
    16:00 +24°C° 0.4 mm 2 m/S 752 mmHg 71%
    17:00 +23°C° 0.4 mm 2 m/S 752 mmHg 79%
    18:00 +22°C° 0.1 mm 1 m/S 752 mmHg 83%
    19:00 +20°C° 0.1 mm 1 m/S 752 mmHg 86%
    20:00 +17°C° 0.1 mm 0 m/S 752 mmHg 90%
    21:00 +16°C° 0 mm 0 m/S 752 mmHg 91%
    22:00 +15°C° 0 mm 0 m/S 752 mmHg 91%
    23:00 +14°C° 0 mm 0 m/S 752 mmHg 92%

    Morgen, 22 Juli, Montag

    Zeit Temperatur Niederschläge Wind Luftdruck Luftfeuchtigkeit
    00:00 +14°C° 0 mm 0 m/S 752 mmHg 93%
    01:00 +14°C° 0 mm 0 m/S 752 mmHg 93%
    02:00 +13°C° 0 mm 0 m/S 752 mmHg 94%
    03:00 +14°C° 0 mm 1 m/S 752 mmHg 94%
    04:00 +15°C° 0 mm 1 m/S 752 mmHg 93%
    05:00 +15°C° 0 mm 1 m/S 752 mmHg 93%
    06:00 +18°C° 0 mm 1 m/S 752 mmHg 87%
    07:00 +19°C° 0 mm 1 m/S 751 mmHg 82%
    08:00 +21°C° 0 mm 1 m/S 751 mmHg 77%
    09:00 +23°C° 0.1 mm 1 m/S 751 mmHg 72%
    10:00 +24°C° 0.1 mm 1 m/S 751 mmHg 68%
    11:00 +25°C° 0.1 mm 1 m/S 751 mmHg 63%
    12:00 +25°C° 0.6 mm 1 m/S 751 mmHg 70%
    13:00 +24°C° 0.6 mm 1 m/S 750 mmHg 76%
    14:00 +23°C° 0.6 mm 1 m/S 750 mmHg 82%
    15:00 +22°C° 0.7 mm 1 m/S 750 mmHg 87%
    16:00 +20°C° 0.7 mm 1 m/S 750 mmHg 91%
    17:00 +19°C° 0.7 mm 1 m/S 750 mmHg 96%
    18:00 +18°C° 0.2 mm 1 m/S 750 mmHg 96%
    19:00 +18°C° 0.2 mm 1 m/S 750 mmHg 96%
    20:00 +18°C° 0.2 mm 1 m/S 750 mmHg 96%
    21:00 +18°C° 0.1 mm 1 m/S 750 mmHg 96%
    22:00 +18°C° 0.1 mm 1 m/S 750 mmHg 96%
    23:00 +18°C° 0.1 mm 1 m/S 750 mmHg 96%

    übermorgen, 23 Juli, Dienstag

    Zeit Temperatur Niederschläge Wind Luftdruck Luftfeuchtigkeit
    00:00 +18°C° 0 mm 1 m/S 749 mmHg 95%
    01:00 +16°C° 0 mm 1 m/S 749 mmHg 95%
    02:00 +16°C° 0 mm 1 m/S 749 mmHg 95%
    03:00 +16°C° 0 mm 1 m/S 749 mmHg 95%
    04:00 +16°C° 0 mm 1 m/S 749 mmHg 96%
    05:00 +16°C° 0 mm 1 m/S 749 mmHg 96%
    06:00 +16°C° 0.1 mm 1 m/S 749 mmHg 96%
    07:00 +16°C° 0.1 mm 1 m/S 749 mmHg 96%
    08:00 +16°C° 0.1 mm 1 m/S 749 mmHg 97%
    09:00 +19°C° 0.3 mm 1 m/S 749 mmHg 94%
    10:00 +20°C° 0.3 mm 1 m/S 749 mmHg 92%
    11:00 +19°C° 0.3 mm 0 m/S 750 mmHg 90%
    12:00 +21°C° 0.5 mm 1 m/S 750 mmHg 89%
    13:00 +21°C° 0.5 mm 1 m/S 750 mmHg 87%
    14:00 +22°C° 0.5 mm 1 m/S 750 mmHg 86%
    15:00 +22°C° 0.4 mm 1 m/S 750 mmHg 84%
    16:00 +22°C° 0.4 mm 1 m/S 750 mmHg 82%
    17:00 +22°C° 0.4 mm 1 m/S 750 mmHg 81%
    18:00 +21°C° 0.1 mm 1 m/S 750 mmHg 84%
    19:00 +18°C° 0.1 mm 0 m/S 750 mmHg 88%
    20:00 +16°C° 0.1 mm 0 m/S 750 mmHg 91%
    21:00 +16°C° 0 mm 0 m/S 751 mmHg 92%
    22:00 +16°C° 0 mm 1 m/S 751 mmHg 93%
    23:00 +15°C° 0 mm 1 m/S 751 mmHg 94%

    24 Juli, Mittwoch

    Zeit Temperatur Niederschläge Wind Luftdruck Luftfeuchtigkeit
    00:00 +15°C° 0 mm 1 m/S 751 mmHg 94%
    01:00 +14°C° 0 mm 1 m/S 751 mmHg 94%
    02:00 +14°C° 0 mm 1 m/S 751 mmHg 94%
    03:00 +14°C° 0 mm 1 m/S 751 mmHg 94%
    04:00 +14°C° 0 mm 1 m/S 752 mmHg 94%
    05:00 +13°C° 0 mm 1 m/S 752 mmHg 93%
    06:00 +15°C° 0 mm 1 m/S 752 mmHg 88%
    07:00 +18°C° 0 mm 1 m/S 752 mmHg 82%
    08:00 +20°C° 0 mm 1 m/S 752 mmHg 77%
    09:00 +21°C° 0 mm 2 m/S 752 mmHg 67%
    10:00 +24°C° 0 mm 2 m/S 752 mmHg 57%
    11:00 +26°C° 0 mm 2 m/S 752 mmHg 47%
    12:00 +26°C° 0 mm 2 m/S 752 mmHg 46%
    13:00 +26°C° 0 mm 3 m/S 752 mmHg 45%
    14:00 +27°C° 0 mm 3 m/S 752 mmHg 44%
    15:00 +26°C° 0 mm 2 m/S 752 mmHg 47%
    16:00 +26°C° 0 mm 2 m/S 752 mmHg 50%
    17:00 +26°C° 0 mm 2 m/S 752 mmHg 54%
    18:00 +24°C° 0 mm 1 m/S 752 mmHg 61%
    19:00 +22°C° 0 mm 1 m/S 752 mmHg 69%
    20:00 +20°C° 0 mm 1 m/S 752 mmHg 77%
    21:00 +17°C° 0 mm 0 m/S 753 mmHg 78%
    22:00 +16°C° 0 mm 0 m/S 753 mmHg 80%
    23:00 +15°C° 0 mm 0 m/S 753 mmHg 82%

    25 Juli, Donnerstag

    Zeit Temperatur Niederschläge Wind Luftdruck Luftfeuchtigkeit
    00:00 +14°C° 0 mm 0 m/S 753 mmHg 84%
    01:00 +14°C° 0 mm 0 m/S 753 mmHg 86%
    02:00 +14°C° 0 mm 0 m/S 753 mmHg 87%
    03:00 +14°C° 0 mm 0 m/S 754 mmHg 88%
    04:00 +14°C° 0 mm 0 m/S 754 mmHg 89%
    05:00 +14°C° 0 mm 0 m/S 754 mmHg 90%
    06:00 +19°C° 0 mm 1 m/S 754 mmHg 83%
    07:00 +21°C° 0 mm 1 m/S 754 mmHg 76%
    08:00 +23°C° 0 mm 1 m/S 754 mmHg 69%
    09:00 +24°C° 0 mm 1 m/S 754 mmHg 64%
    10:00 +26°C° 0 mm 1 m/S 754 mmHg 59%
    11:00 +27°C° 0 mm 2 m/S 754 mmHg 54%
    12:00 +27°C° 0 mm 2 m/S 754 mmHg 54%
    13:00 +27°C° 0 mm 2 m/S 753 mmHg 54%
    14:00 +27°C° 0 mm 2 m/S 753 mmHg 54%
    15:00 +27°C° 0.3 mm 2 m/S 753 mmHg 62%
    16:00 +26°C° 0.3 mm 2 m/S 753 mmHg 70%
    17:00 +25°C° 0.3 mm 2 m/S 753 mmHg 79%
    18:00 +24°C° 0.2 mm 2 m/S 753 mmHg 84%
    19:00 +21°C° 0.2 mm 2 m/S 753 mmHg 89%
    20:00 +21°C° 0.2 mm 1 m/S 753 mmHg 94%
    21:00 +19°C° 0 mm 2 m/S 754 mmHg 94%
    22:00 +18°C° 0 mm 2 m/S 754 mmHg 94%
    23:00 +16°C° 0 mm 2 m/S 754 mmHg 94%

    26 Juli, Freitag

    Zeit Temperatur Niederschläge Wind Luftdruck Luftfeuchtigkeit
    00:00 +15°C° 0 mm 2 m/S 754 mmHg 94%
    01:00 +14°C° 0 mm 2 m/S 754 mmHg 94%
    02:00 +13°C° 0 mm 1 m/S 755 mmHg 94%
    03:00 +13°C° 0 mm 1 m/S 755 mmHg 94%
    04:00 +13°C° 0 mm 1 m/S 755 mmHg 94%
    05:00 +13°C° 0 mm 1 m/S 755 mmHg 94%
    06:00 +15°C° 0 mm 2 m/S 755 mmHg 87%
    07:00 +16°C° 0 mm 2 m/S 755 mmHg 81%
    08:00 +18°C° 0 mm 2 m/S 755 mmHg 75%
    09:00 +19°C° 0 mm 3 m/S 755 mmHg 68%
    10:00 +21°C° 0 mm 3 m/S 755 mmHg 60%
    11:00 +23°C° 0 mm 4 m/S 755 mmHg 53%
    12:00 +23°C° 0 mm 4 m/S 755 mmHg 52%
    13:00 +23°C° 0 mm 4 m/S 754 mmHg 51%
    14:00 +25°C° 0 mm 4 m/S 754 mmHg 51%
    15:00 +23°C° 0 mm 4 m/S 754 mmHg 53%
    16:00 +24°C° 0 mm 3 m/S 754 mmHg 55%
    17:00 +24°C° 0 mm 3 m/S 753 mmHg 57%
    18:00 +21°C° 0 mm 3 m/S 754 mmHg 63%
    19:00 +19°C° 0 mm 3 m/S 754 mmHg 69%
    20:00 +18°C° 0 mm 2 m/S 754 mmHg 75%
    21:00 +17°C° 0 mm 2 m/S 754 mmHg 78%
    22:00 +16°C° 0 mm 2 m/S 754 mmHg 81%
    23:00 +15°C° 0 mm 1 m/S 754 mmHg 84%
    Mehr zeigen